,,PA_Meas_PMT16A,,PR_Meas_QMR101_102,,RH_Meas_QMH101,,SR_Meas_QMS101,,TA_Meas_QMH101,,GenWind,,GenWind,
time,status,PA,status,PR,status,RH,status,SR,status,TA,status,DirAvg,status,SpdAvg,
2012-12-05, 00:00:04,VALID,917.21,VALID,0,VALID,95.9712,VALID,0,VALID,19.7448,VALID,137,VALID,0,
2012-12-05, 00:01:04,VALID,917.239,VALID,0,VALID,95.9864,VALID,0,VALID,19.7043,VALID,137,VALID,0,
2012-12-05, 00:02:04,VALID,917.222,VALID,0,VALID,96.0779,VALID,0,VALID,19.7043,VALID,138,VALID,0,
2012-12-05, 00:03:04,VALID,917.18,VALID,0,VALID,96.0779,VALID,0,VALID,19.6848,VALID,166,VALID,0,
2012-12-05, 00:04:04,VALID,917.204,VALID,0,VALID,96.1008,VALID,0,VALID,19.7058,VALID,166,VALID,0,
2012-12-05, 00:05:04,VALID,917.181,VALID,0,VALID,96.1389,VALID,0,VALID,19.6848,VALID,121,VALID,0,
2012-12-05, 00:06:04,VALID,917.18,VALID,0,VALID,96.1694,VALID,0,VALID,19.6653,VALID,172,VALID,0,
2012-12-05, 00:07:04,VALID,917.182,VALID,0,VALID,96.1618,VALID,0,VALID,19.6668,VALID,173,VALID,0,
2012-12-05, 00:08:04,VALID,917.172,VALID,0,VALID,96.238,VALID,0,VALID,19.6263,VALID,156,VALID,0,
2012-12-05, 00:09:04,VALID,917.178,VALID,0,VALID,96.2685,VALID,0,VALID,19.6458,VALID,170,VALID,0,
2012-12-05, 00:10:04,VALID,917.167,VALID,0,VALID,96.299,VALID,0,VALID,19.6263,VALID,159,VALID,0,
2012-12-05, 00:11:04,VALID,917.177,VALID,0,VALID,96.3219,VALID,0,VALID,19.6473,VALID,159,VALID,0,
2012-12-05, 00:12:04,VALID,917.163,VALID,0,VALID,96.3447,VALID,0,VALID,19.6263,VALID,159,VALID,0,
2012-12-05, 00:13:04,VALID,917.172,VALID,0,VALID,96.3524,VALID,0,VALID,19.6068,VALID,168,VALID,0,
2012-12-05, 00:14:04,VALID,917.151,VALID,0,VALID,96.4133,VALID,0,VALID,19.6278,VALID,168,VALID,0,
2012-12-05, 00:15:04,VALID,917.142,VALID,0,VALID,96.4286,VALID,0,VALID,19.6263,VALID,172,VALID,0,
2012-12-05, 00:16:04,VALID,917.115,VALID,0,VALID,96.4057,VALID,0,VALID,19.6473,VALID,156,VALID,0,
2012-12-05, 00:17:04,VALID,917.143,VALID,0,VALID,96.4133,VALID,0,VALID,19.6473,VALID,132,VALID,0,
2012-12-05, 00:18:04,VALID,917.12,VALID,0,VALID,96.4057,VALID,0,VALID,19.6458,VALID,169,VALID,0,
2012-12-05, 00:19:04,VALID,917.12,VALID,0,VALID,96.3829,VALID,0,VALID,19.6458,VALID,168,VALID,0,
2012-12-05, 00:20:04,VALID,917.098,VALID,0,VALID,96.3829,VALID,0,VALID,19.6668,VALID,159,VALID,0,
2012-12-05, 00:21:04,VALID,917.067,VALID,0,VALID,96.36,VALID,0,VALID,19.6668,VALID,156,VALID,0,
2012-12-05, 00:22:04,VALID,917.08,VALID,0,VALID,96.3752,VALID,0,VALID,19.6653,VALID,144,VALID,0,
2012-12-05, 00:23:04,VALID,917.057,VALID,0,VALID,96.3752,VALID,0,VALID,19.6863,VALID,145,VALID,0,
2012-12-05, 00:24:04,VALID,917.061,VALID,0,VALID,96.3524,VALID,0,VALID,19.6863,VALID,150,VALID,0,
2012-12-05, 00:25:04,VALID,917.017,VALID,0,VALID,96.3829,VALID,0,VALID,19.6863,VALID,119,VALID,0,
2012-12-05, 00:26:04,VALID,917.024,VALID,0,VALID,96.3142,VALID,0,VALID,19.6863,VALID,126,VALID,0,
2012-12-05, 00:27:04,VALID,916.995,VALID,0,VALID,96.2914,VALID,0,VALID,19.6863,VALID,141,VALID,0,
2012-12-05, 00:28:04,VALID,916.968,VALID,0,VALID,96.3142,VALID,0,VALID,19.6653,VALID,169,VALID,0,
2012-12-05, 00:29:04,VALID,916.956,VALID,0,VALID,96.3219,VALID,0,VALID,19.6863,VALID,133,VALID,0,
2012-12-05, 00:30:04,VALID,916.95,VALID,0,VALID,96.2685,VALID,0,VALID,19.6668,VALID,120,VALID,0,
2012-12-05, 00:31:04,VALID,916.932,VALID,0,VALID,96.299,VALID,0,VALID,19.6458,VALID,129,VALID,0,
2012-12-05, 00:32:04,VALID,916.926,VALID,0,VALID,96.3219,VALID,0,VALID,19.6473,VALID,128,VALID,0,
2012-12-05, 00:33:04,VALID,916.902,VALID,0,VALID,96.3447,VALID,0,VALID,19.6263,VALID,140,VALID,0,
2012-12-05, 00:34:04,VALID,916.932,VALID,0,VALID,96.3981,VALID,0,VALID,19.6473,VALID,141,VALID,0,
2012-12-05, 00:35:04,VALID,916.911,VALID,0,VALID,96.4133,VALID,0,VALID,19.6068,VALID,164,VALID,0,
2012-12-05, 00:36:04,VALID,916.9,VALID,0,VALID,96.4286,VALID,0,VALID,19.6068,VALID,151,VALID,0,
2012-12-05, 00:37:04,VALID,916.901,VALID,0,VALID,96.4667,VALID,0,VALID,19.6278,VALID,142,VALID,0,
2012-12-05, 00:38:04,VALID,916.888,VALID,0,VALID,96.4819,VALID,0,VALID,19.6278,VALID,166,VALID,0,
2012-12-05, 00:39:04,VALID,916.889,VALID,0,VALID,96.4896,VALID,0,VALID,19.6278,VALID,159,VALID,0,
2012-12-05, 00:40:04,VALID,916.877,VALID,0,VALID,96.4896,VALID,0,VALID,19.6278,VALID,174,VALID,0,
2012-12-05, 00:41:04,VALID,916.862,VALID,0,VALID,96.5124,VALID,0,VALID,19.6278,VALID,174,VALID,0,
2012-12-05, 00:42:04,VALID,916.858,VALID,0,VALID,96.5353,VALID,0,VALID,19.6083,VALID,173,VALID,0,
2012-12-05, 00:43:04,VALID,916.88,VALID,0,VALID,96.5582,VALID,0,VALID,19.5888,VALID,177,VALID,0,
2012-12-05, 00:44:04,VALID,916.879,VALID,0,VALID,96.5963,VALID,0,VALID,19.5888,VALID,194,VALID,0,
2012-12-05, 00:45:04,VALID,916.867,VALID,0,VALID,96.6268,VALID,0,VALID,19.5873,VALID,188,VALID,0,
2012-12-05, 00:46:04,VALID,916.866,VALID,0,VALID,96.642,VALID,0,VALID,19.5873,VALID,184,VALID,0,
2012-12-05, 00:47:04,VALID,916.859,VALID,0,VALID,96.6878,VALID,0,VALID,19.5858,VALID,183,VALID,0,
2012-12-05, 00:48:04,VALID,916.901,VALID,0,VALID,96.703,VALID,0,VALID,19.5663,VALID,182,VALID,0,
2012-12-05, 00:49:04,VALID,916.858,VALID,0,VALID,96.7107,VALID,0,VALID,19.5663,VALID,182,VALID,0,
2012-12-05, 00:50:04,VALID,916.835,VALID,0,VALID,96.7411,VALID,0,VALID,19.5663,VALID,182,VALID,0,
2012-12-05, 00:51:04,VALID,916.841,VALID,0,VALID,96.7564,VALID,0,VALID,19.5873,VALID,182,VALID,0,
2012-12-05, 00:52:04,VALID,916.817,VALID,0,VALID,96.7716,VALID,0,VALID,19.5468,VALID,164,VALID,0,
2012-12-05, 00:53:04,VALID,916.803,VALID,0,VALID,96.7869,VALID,0,VALID,19.5468,VALID,164,VALID,0,
2012-12-05, 00:54:04,VALID,916.819,VALID,0,VALID,96.7945,VALID,0,VALID,19.5468,VALID,164,VALID,0,
2012-12-05, 00:55:04,VALID,916.8,VALID,0,VALID,96.7945,VALID,0,VALID,19.5483,VALID,164,VALID,0,
2012-12-05, 00:56:04,VALID,916.781,VALID,0,VALID,96.8021,VALID,0,VALID,19.5483,VALID,139,VALID,0,
2012-12-05, 00:57:04,VALID,916.763,VALID,0,VALID,96.825,VALID,0,VALID,19.5483,VALID,139,VALID,0,
2012-12-05, 00:58:04,VALID,916.756,VALID,0,VALID,96.8326,VALID,0,VALID,19.5273,VALID,166,VALID,0,
2012-12-05, 00:59:04,VALID,916.749,VALID,0,VALID,96.8403,VALID,0,VALID,19.5273,VALID,134,VALID,0,
2012-12-05, 01:00:04,VALID,916.738,VALID,0,VALID,96.8403,VALID,0,VALID,19.5303,VALID,82,VALID,0,
2012-12-05, 01:01:04,VALID,916.719,VALID,0,VALID,96.8479,VALID,0,VALID,19.4898,VALID,82,VALID,0,
2012-12-05, 01:02:04,VALID,916.747,VALID,0,VALID,96.8479,VALID,0,VALID,19.4913,VALID,82,VALID,0,
2012-12-05, 01:03:04,VALID,916.695,VALID,0,VALID,96.8479,VALID,0,VALID,19.4718,VALID,82,VALID,0,
2012-12-05, 01:04:04,VALID,916.708,VALID,0,VALID,96.8403,VALID,0,VALID,19.4313,VALID,82,VALID,0,
2012-12-05, 01:05:04,VALID,916.688,VALID,0,VALID,96.8707,VALID,0,VALID,19.4313,VALID,82,VALID,0,
2012-12-05, 01:06:04,VALID,916.682,VALID,0,VALID,96.8631,VALID,0,VALID,19.4327,VALID,82,VALID,0,
2012-12-05, 01:07:04,VALID,916.677,VALID,0,VALID,96.886,VALID,0,VALID,19.3728,VALID,82,VALID,0,
2012-12-05, 01:08:04,VALID,916.662,VALID,0,VALID,96.9089,VALID,0,VALID,19.3937,VALID,82,VALID,0,
2012-12-05, 01:09:04,VALID,916.661,VALID,0,VALID,96.9241,VALID,0,VALID,19.3937,VALID,82,VALID,0,
2012-12-05, 01:10:04,VALID,916.635,VALID,0,VALID,96.9394,VALID,0,VALID,19.3728,VALID,82,VALID,0,
2012-12-05, 01:11:04,VALID,916.642,VALID,0,VALID,96.947,VALID,0,VALID,19.3937,VALID,82,VALID,0,
2012-12-05, 01:12:04,VALID,916.614,VALID,0,VALID,96.9698,VALID,0,VALID,19.3533,VALID,83,VALID,0,
2012-12-05, 01:13:04,VALID,916.623,VALID,0,VALID,96.9851,VALID,0,VALID,19.3937,VALID,82,VALID,0,
2012-12-05, 01:14:04,VALID,916.613,VALID,0,VALID,97.0003,VALID,0,VALID,19.3533,VALID,82,VALID,0,
2012-12-05, 01:15:04,VALID,916.591,VALID,0,VALID,97.0232,VALID,0,VALID,19.3923,VALID,82,VALID,0,
2012-12-05, 01:16:04,VALID,916.597,VALID,0,VALID,97.0232,VALID,0,VALID,19.3937,VALID,82,VALID,0,
2012-12-05, 01:17:04,VALID,916.556,VALID,0,VALID,97.0232,VALID,0,VALID,19.3937,VALID,82,VALID,0,
2012-12-05, 01:18:04,VALID,916.541,VALID,0,VALID,97.008,VALID,0,VALID,19.3937,VALID,82,VALID,0,
2012-12-05, 01:19:04,VALID,916.548,VALID,0,VALID,97.0385,VALID,0,VALID,19.3533,VALID,82,VALID,0,
2012-12-05, 01:20:04,VALID,916.531,VALID,0,VALID,97.0537,VALID,0,VALID,19.3728,VALID,82,VALID,0,
2012-12-05, 01:21:04,VALID,916.532,VALID,0,VALID,97.0385,VALID,0,VALID,19.3742,VALID,82,VALID,0,
2012-12-05, 01:22:04,VALID,916.471,VALID,0,VALID,97.0613,VALID,0,VALID,19.3533,VALID,82,VALID,0,
2012-12-05, 01:23:04,VALID,916.455,VALID,0,VALID,97.069,VALID,0,VALID,19.3533,VALID,82,VALID,0,
2012-12-05, 01:24:04,VALID,916.471,VALID,0,VALID,97.0994,VALID,0,VALID,19.3533,VALID,82,VALID,0,
2012-12-05, 01:25:04,VALID,916.475,VALID,0,VALID,97.1071,VALID,0,VALID,19.3742,VALID,82,VALID,0,
2012-12-05, 01:26:04,VALID,916.452,VALID,0,VALID,97.1071,VALID,0,VALID,19.3742,VALID,82,VALID,0,
2012-12-05, 01:27:04,VALID,916.442,VALID,0,VALID,97.1299,VALID,0,VALID,19.3533,VALID,66,VALID,0,
2012-12-05, 01:28:04,VALID,916.421,VALID,0,VALID,97.1376,VALID,0,VALID,19.3338,VALID,66,VALID,0,
2012-12-05, 01:29:04,VALID,916.444,VALID,0,VALID,97.1452,VALID,0,VALID,19.3352,VALID,79,VALID,0,
2012-12-05, 01:30:04,VALID,916.439,VALID,0,VALID,97.1604,VALID,0,VALID,19.3533,VALID,85,VALID,0,
2012-12-05, 01:31:04,VALID,916.426,VALID,0,VALID,97.1833,VALID,0.107441,VALID,19.3533,VALID,80,VALID,0,
2012-12-05, 01:32:04,VALID,916.453,VALID,0,VALID,97.1681,VALID,0,VALID,19.3533,VALID,77,VALID,0,
2012-12-05, 01:33:04,VALID,916.441,VALID,0,VALID,97.1681,VALID,0,VALID,19.3338,VALID,86,VALID,0,
2012-12-05, 01:34:04,VALID,916.439,VALID,0,VALID,97.1833,VALID,0,VALID,19.3338,VALID,86,VALID,0,
2012-12-05, 01:35:04,VALID,916.408,VALID,0,VALID,97.1986,VALID,0,VALID,19.3533,VALID,86,VALID,0,
2012-12-05, 01:36:04,VALID,916.439,VALID,0,VALID,97.2062,VALID,0,VALID,19.3323,VALID,86,VALID,0,
2012-12-05, 01:37:04,VALID,916.411,VALID,0,VALID,97.2062,VALID,0.107441,VALID,19.3338,VALID,86,VALID,0,
2012-12-05, 01:38:04,VALID,916.398,VALID,0,VALID,97.2062,VALID,0.107441,VALID,19.3533,VALID,97,VALID,0,
2012-12-05, 01:39:04,VALID,916.376,VALID,0,VALID,97.2214,VALID,0,VALID,19.3323,VALID,131,VALID,0,
2012-12-05, 01:40:04,VALID,916.344,VALID,0,VALID,97.2214,VALID,0,VALID,19.3728,VALID,109,VALID,0,
2012-12-05, 01:41:04,VALID,916.341,VALID,0,VALID,97.2062,VALID,0,VALID,19.3533,VALID,135,VALID,0,
2012-12-05, 01:42:04,VALID,916.327,VALID,0,VALID,97.2214,VALID,0.107441,VALID,19.3323,VALID,128,VALID,0,
2012-12-05, 01:43:04,VALID,916.339,VALID,0,VALID,97.2367,VALID,0.107441,VALID,19.3533,VALID,133,VALID,0,
2012-12-05, 01:44:04,VALID,916.344,VALID,0,VALID,97.2214,VALID,0,VALID,19.3518,VALID,124,VALID,0,
2012-12-05, 01:45:04,VALID,916.338,VALID,0,VALID,97.2138,VALID,0,VALID,19.3338,VALID,138,VALID,0,
2012-12-05, 01:46:04,VALID,916.341,VALID,0,VALID,97.2367,VALID,0,VALID,19.3547,VALID,125,VALID,0,
2012-12-05, 01:47:04,VALID,916.346,VALID,0,VALID,97.2214,VALID,0,VALID,19.3352,VALID,125,VALID,0,
2012-12-05, 01:48:04,VALID,916.339,VALID,0,VALID,97.2062,VALID,0,VALID,19.3157,VALID,120,VALID,0,
2012-12-05, 01:49:04,VALID,916.309,VALID,0,VALID,97.2214,VALID,0,VALID,19.2948,VALID,117,VALID,0,
2012-12-05, 01:50:04,VALID,916.296,VALID,0,VALID,97.2138,VALID,0,VALID,19.3157,VALID,124,VALID,0,
2012-12-05, 01:51:04,VALID,916.274,VALID,0,VALID,97.229,VALID,0,VALID,19.2962,VALID,112,VALID,0,
2012-12-05, 01:52:04,VALID,916.256,VALID,0,VALID,97.2138,VALID,0,VALID,19.2753,VALID,95,VALID,0,
2012-12-05, 01:53:04,VALID,916.229,VALID,0,VALID,97.2367,VALID,0,VALID,19.2767,VALID,89,VALID,0,
2012-12-05, 01:54:04,VALID,916.253,VALID,0,VALID,97.2138,VALID,0,VALID,19.2753,VALID,89,VALID,0,
2012-12-05, 01:55:04,VALID,916.226,VALID,0,VALID,97.2138,VALID,0,VALID,19.2558,VALID,100,VALID,0,
2012-12-05, 01:56:04,VALID,916.225,VALID,0,VALID,97.2214,VALID,0,VALID,19.2767,VALID,92,VALID,0,
2012-12-05, 01:57:04,VALID,916.25,VALID,0,VALID,97.229,VALID,0,VALID,19.2558,VALID,92,VALID,0,
2012-12-05, 01:58:04,VALID,916.227,VALID,0,VALID,97.1833,VALID,0,VALID,19.2767,VALID,71,VALID,0,
2012-12-05, 01:59:04,VALID,916.21,VALID,0,VALID,97.1909,VALID,0,VALID,19.2767,VALID,115,VALID,0,
2012-12-05, 02:00:04,VALID,916.204,VALID,0,VALID,97.1986,VALID,0,VALID,19.2767,VALID,115,VALID,0,
2012-12-05, 02:01:04,VALID,916.226,VALID,0,VALID,97.1757,VALID,0,VALID,19.2572,VALID,115,VALID,0,
2012-12-05, 02:02:04,VALID,916.171,VALID,0,VALID,97.1757,VALID,0,VALID,19.2572,VALID,115,VALID,0,
2012-12-05, 02:03:04,VALID,916.183,VALID,0,VALID,97.1604,VALID,0,VALID,19.2572,VALID,115,VALID,0,
2012-12-05, 02:04:04,VALID,916.185,VALID,0,VALID,97.1604,VALID,0,VALID,19.2377,VALID,115,VALID,0,
2012-12-05, 02:05:04,VALID,916.198,VALID,0,VALID,97.1528,VALID,0,VALID,19.2377,VALID,115,VALID,0,
2012-12-05, 02:06:04,VALID,916.183,VALID,0,VALID,97.1604,VALID,0,VALID,19.2572,VALID,115,VALID,0,
2012-12-05, 02:07:04,VALID,916.216,VALID,0,VALID,97.1528,VALID,0,VALID,19.2377,VALID,115,VALID,0,
2012-12-05, 02:08:04,VALID,916.191,VALID,0,VALID,97.1376,VALID,0,VALID,19.2377,VALID,115,VALID,0,
2012-12-05, 02:09:04,VALID,916.185,VALID,0,VALID,97.1681,VALID,0,VALID,19.2182,VALID,115,VALID,0,
2012-12-05, 02:10:04,VALID,916.198,VALID,0,VALID,97.1452,VALID,0,VALID,19.2182,VALID,115,VALID,0,
2012-12-05, 02:11:05,VALID,916.163,VALID,0,VALID,97.1528,VALID,0,VALID,19.2168,VALID,115,VALID,0,
2012-12-05, 02:12:05,VALID,916.199,VALID,0,VALID,97.1528,VALID,0,VALID,19.2182,VALID,115,VALID,0,
2012-12-05, 02:13:05,VALID,916.172,VALID,0,VALID,97.1452,VALID,0,VALID,19.2168,VALID,115,VALID,0,
2012-12-05, 02:14:05,VALID,916.156,VALID,0,VALID,97.1681,VALID,0,VALID,19.1987,VALID,115,VALID,0,
2012-12-05, 02:15:05,VALID,916.164,VALID,0,VALID,97.1376,VALID,0,VALID,19.2168,VALID,115,VALID,0,
2012-12-05, 02:16:05,VALID,916.153,VALID,0,VALID,97.1528,VALID,0.107441,VALID,19.1568,VALID,115,VALID,0,
2012-12-05, 02:17:05,VALID,916.126,VALID,0,VALID,97.1528,VALID,0,VALID,19.1388,VALID,115,VALID,0,
2012-12-05, 02:18:05,VALID,916.151,VALID,0,VALID,97.1681,VALID,0,VALID,19.1402,VALID,115,VALID,0,
2012-12-05, 02:19:05,VALID,916.115,VALID,0,VALID,97.1681,VALID,0,VALID,19.1402,VALID,115,VALID,0,
2012-12-05, 02:20:05,VALID,916.124,VALID,0,VALID,97.1757,VALID,0,VALID,19.1417,VALID,115,VALID,0,
2012-12-05, 02:21:05,VALID,916.096,VALID,0,VALID,97.1833,VALID,0,VALID,19.1012,VALID,115,VALID,0,
2012-12-05, 02:22:05,VALID,916.085,VALID,0,VALID,97.1833,VALID,0,VALID,19.1012,VALID,115,VALID,0,
2012-12-05, 02:23:05,VALID,916.068,VALID,0,VALID,97.1604,VALID,0,VALID,19.0622,VALID,77,VALID,0,
2012-12-05, 02:24:05,VALID,916.086,VALID,0,VALID,97.2062,VALID,0,VALID,19.0622,VALID,80,VALID,0,
2012-12-05, 02:25:05,VALID,916.102,VALID,0,VALID,97.1909,VALID,0,VALID,19.0622,VALID,78,VALID,0,
2012-12-05, 02:26:05,VALID,916.071,VALID,0,VALID,97.1909,VALID,0,VALID,19.0622,VALID,78,VALID,0,
2012-12-05, 02:27:05,VALID,916.084,VALID,0,VALID,97.1604,VALID,0,VALID,19.0817,VALID,78,VALID,0,
2012-12-05, 02:28:05,VALID,916.062,VALID,0,VALID,97.1528,VALID,0,VALID,19.0817,VALID,78,VALID,0,
2012-12-05, 02:29:05,VALID,916.081,VALID,0,VALID,97.1528,VALID,0,VALID,19.0622,VALID,78,VALID,0,
2012-12-05, 02:30:05,VALID,916.048,VALID,0,VALID,97.1528,VALID,0.107441,VALID,19.0803,VALID,78,VALID,0,
2012-12-05, 02:31:05,VALID,916.092,VALID,0,VALID,97.1452,VALID,0.107441,VALID,19.0803,VALID,78,VALID,0,
2012-12-05, 02:32:05,VALID,916.056,VALID,0,VALID,97.1528,VALID,0.107441,VALID,19.0803,VALID,78,VALID,0,
2012-12-05, 02:33:05,VALID,916.052,VALID,0,VALID,97.1452,VALID,0,VALID,19.0608,VALID,78,VALID,0,
2012-12-05, 02:34:05,VALID,916.036,VALID,0,VALID,97.1528,VALID,0,VALID,19.0608,VALID,78,VALID,0,
2012-12-05, 02:35:05,VALID,916.057,VALID,0,VALID,97.1604,VALID,0,VALID,19.0413,VALID,78,VALID,0,
2012-12-05, 02:36:05,VALID,916.065,VALID,0,VALID,97.1681,VALID,0.107441,VALID,19.0413,VALID,78,VALID,0,
2012-12-05, 02:37:05,VALID,916.078,VALID,0,VALID,97.1681,VALID,0.107441,VALID,19.0203,VALID,78,VALID,0,
2012-12-05, 02:38:05,VALID,916.096,VALID,0,VALID,97.1909,VALID,0.107441,VALID,19.0218,VALID,78,VALID,0,
2012-12-05, 02:39:05,VALID,916.093,VALID,0,VALID,97.1986,VALID,0.107441,VALID,19.0008,VALID,78,VALID,0,
2012-12-05, 02:40:05,VALID,916.09,VALID,0,VALID,97.2062,VALID,0,VALID,19.0218,VALID,78,VALID,0,
2012-12-05, 02:41:05,VALID,916.077,VALID,0,VALID,97.2138,VALID,0,VALID,19.0413,VALID,78,VALID,0,
2012-12-05, 02:42:05,VALID,916.117,VALID,0,VALID,97.2214,VALID,0,VALID,19.0413,VALID,78,VALID,0,
2012-12-05, 02:43:05,VALID,916.115,VALID,0,VALID,97.2443,VALID,0.107441,VALID,19.0203,VALID,78,VALID,0,
2012-12-05, 02:44:05,VALID,916.12,VALID,0,VALID,97.2519,VALID,0,VALID,19.0608,VALID,78,VALID,0,
2012-12-05, 02:45:05,VALID,916.113,VALID,0,VALID,97.2595,VALID,0,VALID,19.0427,VALID,78,VALID,0,
2012-12-05, 02:46:05,VALID,916.098,VALID,0,VALID,97.2672,VALID,0,VALID,19.0232,VALID,78,VALID,0,
2012-12-05, 02:47:05,VALID,916.088,VALID,0,VALID,97.2672,VALID,0,VALID,19.0023,VALID,78,VALID,0,
2012-12-05, 02:48:05,VALID,916.085,VALID,0,VALID,97.2672,VALID,0,VALID,19.0037,VALID,78,VALID,0,
2012-12-05, 02:49:05,VALID,916.053,VALID,0,VALID,97.29,VALID,0,VALID,18.9842,VALID,78,VALID,0,
2012-12-05, 02:50:05,VALID,916.052,VALID,0,VALID,97.2595,VALID,0,VALID,18.9647,VALID,78,VALID,0,
2012-12-05, 02:51:05,VALID,916.058,VALID,0,VALID,97.29,VALID,0,VALID,18.9438,VALID,78,VALID,0,
2012-12-05, 02:52:05,VALID,916.064,VALID,0,VALID,97.2824,VALID,0,VALID,18.9452,VALID,78,VALID,0,
2012-12-05, 02:53:05,VALID,916.038,VALID,0,VALID,97.2824,VALID,0,VALID,18.9452,VALID,78,VALID,0,
2012-12-05, 02:54:05,VALID,916.049,VALID,0,VALID,97.29,VALID,0,VALID,18.9452,VALID,78,VALID,0,
2012-12-05, 02:55:05,VALID,916.039,VALID,0,VALID,97.3053,VALID,0,VALID,18.9257,VALID,78,VALID,0,
2012-12-05, 02:56:05,VALID,916.058,VALID,0,VALID,97.2977,VALID,0,VALID,18.9062,VALID,78,VALID,0,
2012-12-05, 02:57:05,VALID,916.07,VALID,0,VALID,97.3053,VALID,0,VALID,18.9257,VALID,78,VALID,0,
2012-12-05, 02:58:05,VALID,916.086,VALID,0,VALID,97.3358,VALID,0,VALID,18.9452,VALID,78,VALID,0,
2012-12-05, 02:59:05,VALID,916.084,VALID,0,VALID,97.3205,VALID,0,VALID,18.9243,VALID,78,VALID,0,
2012-12-05, 03:00:05,VALID,916.1,VALID,0,VALID,97.3129,VALID,0,VALID,18.9424,VALID,78,VALID,0,
2012-12-05, 03:01:05,VALID,916.087,VALID,0,VALID,97.3358,VALID,0,VALID,18.9633,VALID,78,VALID,0,
2012-12-05, 03:02:05,VALID,916.112,VALID,0,VALID,97.3205,VALID,0,VALID,18.9229,VALID,78,VALID,0,
2012-12-05, 03:03:05,VALID,916.075,VALID,0,VALID,97.3281,VALID,0.107441,VALID,18.9633,VALID,78,VALID,0,
2012-12-05, 03:04:05,VALID,916.09,VALID,0,VALID,97.3358,VALID,0,VALID,18.9243,VALID,78,VALID,0,
2012-12-05, 03:05:05,VALID,916.063,VALID,0,VALID,97.3205,VALID,0,VALID,18.9438,VALID,78,VALID,0,
2012-12-05, 03:06:05,VALID,916.029,VALID,0,VALID,97.3434,VALID,0.107441,VALID,18.9438,VALID,78,VALID,0,
2012-12-05, 03:07:05,VALID,916.022,VALID,0,VALID,97.3129,VALID,0.107441,VALID,18.9438,VALID,78,VALID,0,
2012-12-05, 03:08:05,VALID,916.02,VALID,0,VALID,97.3129,VALID,0.107441,VALID,18.9438,VALID,78,VALID,0,
2012-12-05, 03:09:05,VALID,916.027,VALID,0,VALID,97.3053,VALID,0.107441,VALID,18.9438,VALID,78,VALID,0,
2012-12-05, 03:10:05,VALID,915.992,VALID,0,VALID,97.2977,VALID,0.107441,VALID,18.9243,VALID,78,VALID,0,
2012-12-05, 03:11:05,VALID,915.99,VALID,0,VALID,97.29,VALID,0.107441,VALID,18.9048,VALID,78,VALID,0,
2012-12-05, 03:12:05,VALID,915.976,VALID,0,VALID,97.29,VALID,0.107441,VALID,18.8839,VALID,78,VALID,0,
2012-12-05, 03:13:05,VALID,915.929,VALID,0,VALID,97.2977,VALID,0.107441,VALID,18.9048,VALID,78,VALID,0,
2012-12-05, 03:14:05,VALID,915.91,VALID,0,VALID,97.2977,VALID,0.107441,VALID,18.8853,VALID,78,VALID,0,
2012-12-05, 03:15:05,VALID,915.934,VALID,0,VALID,97.2977,VALID,0,VALID,18.8672,VALID,78,VALID,0,
2012-12-05, 03:16:05,VALID,915.911,VALID,0,VALID,97.3053,VALID,0,VALID,18.8672,VALID,78,VALID,0,
2012-12-05, 03:17:05,VALID,915.912,VALID,0,VALID,97.3053,VALID,0,VALID,18.8477,VALID,78,VALID,0,
2012-12-05, 03:18:05,VALID,915.895,VALID,0,VALID,97.3281,VALID,0,VALID,18.8477,VALID,78,VALID,0,
2012-12-05, 03:19:05,VALID,915.862,VALID,0,VALID,97.3129,VALID,0,VALID,18.8687,VALID,78,VALID,0,
2012-12-05, 03:20:05,VALID,915.856,VALID,0,VALID,97.3053,VALID,0,VALID,18.8282,VALID,78,VALID,0,
2012-12-05, 03:21:05,VALID,915.863,VALID,0,VALID,97.3053,VALID,0,VALID,18.8477,VALID,78,VALID,0,
2012-12-05, 03:22:05,VALID,915.842,VALID,0,VALID,97.2977,VALID,0,VALID,18.8477,VALID,78,VALID,0,
2012-12-05, 03:23:05,VALID,915.829,VALID,0,VALID,97.3053,VALID,0,VALID,18.8087,VALID,78,VALID,0,
2012-12-05, 03:24:05,VALID,915.838,VALID,0,VALID,97.2977,VALID,0,VALID,18.8282,VALID,78,VALID,0,
2012-12-05, 03:25:05,VALID,915.814,VALID,0,VALID,97.2824,VALID,0,VALID,18.8282,VALID,78,VALID,0,
2012-12-05, 03:26:05,VALID,915.822,VALID,0,VALID,97.29,VALID,0,VALID,18.8282,VALID,78,VALID,0,
2012-12-05, 03:27:05,VALID,915.844,VALID,0,VALID,97.2748,VALID,0,VALID,18.8477,VALID,78,VALID,0,
2012-12-05, 03:28:05,VALID,915.821,VALID,0,VALID,97.2519,VALID,0,VALID,18.8672,VALID,78,VALID,0,
2012-12-05, 03:29:05,VALID,915.87,VALID,0,VALID,97.229,VALID,0,VALID,18.8477,VALID,78,VALID,0,
2012-12-05, 03:30:05,VALID,915.855,VALID,0,VALID,97.2443,VALID,0,VALID,18.8463,VALID,78,VALID,0,
2012-12-05, 03:31:05,VALID,915.861,VALID,0,VALID,97.2367,VALID,0.107441,VALID,18.8463,VALID,78,VALID,0,
2012-12-05, 03:32:05,VALID,915.888,VALID,0,VALID,97.229,VALID,0,VALID,18.8463,VALID,101,VALID,0,
2012-12-05, 03:33:05,VALID,915.882,VALID,0,VALID,97.2443,VALID,0,VALID,18.8477,VALID,110,VALID,0,
2012-12-05, 03:34:05,VALID,915.887,VALID,0,VALID,97.2138,VALID,0,VALID,18.8268,VALID,118,VALID,0,
2012-12-05, 03:35:05,VALID,915.881,VALID,0,VALID,97.2672,VALID,0,VALID,18.8477,VALID,128,VALID,0,
2012-12-05, 03:36:05,VALID,915.9,VALID,0,VALID,97.2519,VALID,0,VALID,18.8477,VALID,128,VALID,0,
2012-12-05, 03:37:05,VALID,915.904,VALID,0,VALID,97.2748,VALID,0,VALID,18.8268,VALID,163,VALID,0,
2012-12-05, 03:38:05,VALID,915.897,VALID,0,VALID,97.2748,VALID,0,VALID,18.8672,VALID,164,VALID,0,
2012-12-05, 03:39:05,VALID,915.952,VALID,0,VALID,97.2977,VALID,0,VALID,18.8268,VALID,164,VALID,0,
2012-12-05, 03:40:05,VALID,915.962,VALID,0,VALID,97.3053,VALID,0,VALID,18.8463,VALID,164,VALID,0,
2012-12-05, 03:41:05,VALID,916.005,VALID,0,VALID,97.3129,VALID,0,VALID,18.8268,VALID,164,VALID,0,
2012-12-05, 03:42:05,VALID,916.03,VALID,0,VALID,97.3053,VALID,0,VALID,18.8463,VALID,164,VALID,0,
2012-12-05, 03:43:05,VALID,916.04,VALID,0,VALID,97.3205,VALID,0,VALID,18.8463,VALID,175,VALID,0,
2012-12-05, 03:44:05,VALID,916.059,VALID,0,VALID,97.3434,VALID,0,VALID,18.8672,VALID,174,VALID,0,
2012-12-05, 03:45:05,VALID,916.081,VALID,0,VALID,97.3586,VALID,0,VALID,18.8477,VALID,174,VALID,0,
2012-12-05, 03:46:05,VALID,916.096,VALID,0,VALID,97.3358,VALID,0,VALID,18.8477,VALID,174,VALID,0,
2012-12-05, 03:47:05,VALID,916.079,VALID,0,VALID,97.3358,VALID,0,VALID,18.8672,VALID,174,VALID,0,
2012-12-05, 03:48:05,VALID,916.093,VALID,0,VALID,97.3739,VALID,0,VALID,18.8268,VALID,174,VALID,0,
2012-12-05, 03:49:05,VALID,916.066,VALID,0,VALID,97.3586,VALID,0,VALID,18.8268,VALID,174,VALID,0,
2012-12-05, 03:50:05,VALID,916.071,VALID,0,VALID,97.3739,VALID,0.107441,VALID,18.8268,VALID,174,VALID,0,
2012-12-05, 03:51:05,VALID,916.039,VALID,0,VALID,97.3586,VALID,0,VALID,18.8268,VALID,174,VALID,0,
2012-12-05, 03:52:05,VALID,916.037,VALID,0,VALID,97.3663,VALID,0,VALID,18.8282,VALID,174,VALID,0,
2012-12-05, 03:53:05,VALID,916.028,VALID,0,VALID,97.3663,VALID,0,VALID,18.8073,VALID,166,VALID,0,
2012-12-05, 03:54:05,VALID,916.061,VALID,0,VALID,97.3739,VALID,0,VALID,18.8282,VALID,166,VALID,0,
2012-12-05, 03:55:05,VALID,916.072,VALID,0,VALID,97.3815,VALID,0,VALID,18.8073,VALID,166,VALID,0,
2012-12-05, 03:56:05,VALID,916.057,VALID,0,VALID,97.3968,VALID,0,VALID,18.8073,VALID,166,VALID,0,
2012-12-05, 03:57:05,VALID,916.079,VALID,0,VALID,97.3815,VALID,0,VALID,18.7878,VALID,166,VALID,0,
2012-12-05, 03:58:05,VALID,916.121,VALID,0,VALID,97.3815,VALID,0,VALID,18.7878,VALID,166,VALID,0,
2012-12-05, 03:59:05,VALID,916.087,VALID,0,VALID,97.3891,VALID,0,VALID,18.8087,VALID,166,VALID,0,